Location: Unspecified
(64.9000°N, 0.0000°E)
Time: 06:37:00
(UTC+00:00)

A-11 Canister half - Pass Details

Date: 20 June 2019
Orbit: 1526 x 1683 km, 47.3° (Epoch: 17 July)

Event Time Altitude Azimuth Distance (km) Brightness Sun altitude
Rises 07:37:16 0° 240° (WSW) 4,698 11.2 31.2°
Reaches altitude 10° 07:40:56 10° 228° (SW) 3,704 10.8 31.6°
Maximum altitude 07:48:06 26° 177° (S) 2,651 10.7 32.3°
Drops below altitude 10° 07:55:17 10° 126° (SE) 3,703 12.2 33.1°
Sets 07:58:57 0° 115° (ESE) 4,697 12.6 33.4°
